| time (UTC) | temp F | wind direction | speed MPH | gust MPH | rain 1hr in | rain 24hr in | rain mn in | humidity % | barometer mb |
| 20260906134607 | 64 | 63 | 3.0 | 10.0 | 0.00 | 0.00 | 0.00 | 84 | 1013.3 |
| 20260906133057 | 62 | 286 | 2.0 | 6.0 | 0.00 | 0.00 | 0.00 | 90 | 1013.3 |
| 20260906131552 | 61 | 5 | 0.0 | 2.0 | 0.00 | 0.00 | 0.00 | 96 | 1013.4 |
| 20260906130056 | 59 | 5 | 0.0 | 2.0 | 0.00 | 0.00 | 0.00 | 97 | 1013.2 |
| 20260906124542 | 59 | 5 | 0.0 | 2.0 | 0.00 | 0.00 | 0.00 | 98 | 1013.4 |
| 20260906123040 | 59 | 5 | 0.0 | 2.0 | 0.00 | 0.00 | 0.00 | 98 | 1013.3 |
| 20260906121533 | 58 | 5 | 0.0 | 2.0 | 0.00 | 0.00 | 0.00 | 98 | 1013.3 |
| 20260906120026 | 58 | 5 | 0.0 | 2.0 | 0.00 | 0.00 | 0.00 | 99 | 1013.0 |
| 20260906114523 | 57 | 5 | 0.0 | 2.0 | 0.00 | 0.00 | 0.00 | 98 | 1013.0 |
| 20260906113020 | 57 | 5 | 0.0 | 2.0 | 0.00 | 0.00 | 0.00 | 98 | 1012.9 |
| 20260906111512 | 57 | 5 | 0.0 | 2.0 | 0.00 | 0.00 | 0.00 | 98 | 1012.7 |
| 20260906110008 | 57 | 9 | 0.0 | 0.0 | 0.00 | 0.00 | 0.00 | 98 | 1012.6 |
| 20260906104504 | 56 | 5 | 0.0 | 0.0 | 0.00 | 0.00 | 0.00 | 98 | 1012.4 |
| 20260906103100 | 56 | 9 | 0.0 | 0.0 | 0.00 | 0.00 | 0.00 | 98 | 1012.3 |
| 20260906103001 | 56 | 5 | 0.0 | 0.0 | 0.00 | 0.00 | 0.00 | 98 | 1012.3 |
| 20260906101555 | 56 | 9 | 0.0 | 2.0 | 0.00 | 0.00 | 0.00 | 98 | 1012.2 |
| 20260906100048 | 56 | 9 | 1.0 | 3.0 | 0.00 | 0.00 | 0.00 | 98 | 1011.9 |
| 20260906094544 | 56 | 9 | 0.0 | 2.0 | 0.00 | 0.00 | 0.00 | 98 | 1011.9 |
| 20260906093049 | 56 | 9 | 0.0 | 2.0 | 0.00 | 0.00 | 0.00 | 98 | 1011.6 |
| 20260906091539 | 56 | 9 | 0.0 | 2.0 | 0.00 | 0.00 | 0.00 | 98 | 1011.6 |
| 20260906090022 | 56 | 9 | 0.0 | 2.0 | 0.00 | 0.00 | 0.00 | 98 | 1011.5 |
| 20260906084518 | 55 | 9 | 0.0 | 2.0 | 0.00 | 0.00 | 0.00 | 98 | 1011.4 |
| 20260906083013 | 56 | 9 | 0.0 | 2.0 | 0.00 | 0.00 | 0.00 | 98 | 1011.2 |
| 20260906080007 | 56 | 360 | 0.0 | 2.0 | 0.00 | 0.00 | 0.00 | 98 | 1011.2 |
| 20260906074502 | 55 | 360 | 0.0 | 2.0 | 0.00 | 0.00 | 0.00 | 97 | 1011.3 |
| 20260906073059 | 56 | 360 | 0.0 | 0.0 | 0.00 | 0.00 | 0.00 | 97 | 1011.2 |
| 20260906071654 | 56 | 66 | 0.0 | 0.0 | 0.00 | 0.00 | 0.00 | 1 | 1011.1 |
| 20260906070050 | 57 | 65 | 0.0 | 0.0 | 0.00 | 0.00 | 0.00 | 1 | 1011.1 |
| 20260906064545 | 57 | 167 | 0.0 | 0.0 | 0.00 | 0.00 | 0.00 | 1 | 1011.1 |
| 20260906063041 | 58 | 168 | 0.0 | 1.0 | 0.00 | 0.00 | 0.00 | 1 | 1011.2 |
| 20260906061636 | 58 | 165 | 0.0 | 0.0 | 0.00 | 0.00 | 0.00 | 1 | 1011.1 |
| 20260906060012 | 58 | 167 | 0.0 | 0.0 | 0.00 | 0.00 | 0.00 | 1 | 1011.2 |
| 20260906054522 | 58 | 64 | 0.0 | 0.0 | 0.00 | 0.00 | 0.00 | 1 | 1011.3 |
| 20260906053059 | 59 | 167 | 0.0 | 0.0 | 0.00 | 0.00 | 0.00 | 1 | 1011.3 |
| 20260906051604 | 59 | 168 | 0.0 | 0.0 | 0.00 | 0.00 | 0.00 | 1 | 1011.4 |
| 20260906050050 | 59 | 168 | 0.0 | 0.0 | 0.00 | 0.00 | 0.00 | 1 | 1011.3 |
| 20260906044549 | 59 | 169 | 0.0 | 0.0 | 0.00 | 0.00 | 0.00 | 1 | 1011.4 |
| 20260906043041 | 59 | 168 | 0.0 | 0.0 | 0.00 | 0.00 | 0.00 | 1 | 1011.4 |
| 20260906041536 | 59 | 169 | 0.0 | 1.0 | 0.00 | 0.00 | 0.00 | 1 | 1011.3 |
| 20260906040032 | 59 | 169 | 0.0 | 0.0 | 0.00 | 0.00 | 0.00 | 1 | 1011.3 |
| 20260906034528 | 59 | 169 | 0.0 | 0.0 | 0.00 | 0.00 | 0.00 | 1 | 1011.4 |
| 20260906033020 | 60 | 169 | 0.0 | 1.0 | 0.00 | 0.00 | 0.00 | 1 | 1011.3 |
| 20260906031518 | 60 | 169 | 0.0 | 1.0 | 0.00 | 0.00 | 0.00 | 1 | 1011.2 |
| 20260906030012 | 60 | 169 | 0.0 | 1.0 | 0.00 | 0.00 | 0.00 | 1 | 1011.1 |
| 20260906024508 | 60 | 169 | 0.0 | 3.0 | 0.00 | 0.00 | 0.00 | 1 | 1011.0 |
| 20260906023000 | 60 | 196 | 0.0 | 0.0 | 0.00 | 0.00 | 0.00 | 1 | 1010.9 |
| 20260906021557 | 60 | 199 | 0.0 | 0.0 | 0.00 | 0.00 | 0.00 | 1 | 1010.9 |
| 20260906020052 | 61 | 200 | 0.0 | 1.0 | 0.00 | 0.00 | 0.00 | 1 | 1010.9 |
| 20260906014554 | 61 | 161 | 0.0 | 1.0 | 0.00 | 0.00 | 0.00 | 1 | 1010.8 |
| 20260906013044 | 61 | 196 | 0.0 | 1.0 | 0.00 | 0.00 | 0.00 | 1 | 1010.8 |
| 20260906011536 | 61 | 242 | 0.0 | 1.0 | 0.00 | 0.00 | 0.00 | 1 | 1010.7 |
| 20260906010030 | 62 | 60 | 0.0 | 0.0 | 0.00 | 0.00 | 0.00 | 1 | 1010.5 |
| 20260906004527 | 62 | 67 | 0.0 | 0.0 | 0.00 | 0.00 | 0.00 | 1 | 1010.4 |
| 20260906003052 | 63 | 67 | 0.0 | 0.0 | 0.00 | 0.00 | 0.00 | 1 | 1010.3 |
| 20260906001547 | 64 | 298 | 0.0 | 3.0 | 0.00 | 0.00 | 0.00 | 1 | 1010.3 |
| 20260906000041 | 64 | 313 | 2.0 | 4.0 | 0.00 | 0.00 | 0.00 | 1 | 1010.4 |
| 20260905234540 | 64 | 275 | 0.0 | 0.0 | 0.00 | 0.00 | 0.00 | 1 | 1010.1 |
| 20260905233033 | 66 | 223 | 0.0 | 0.0 | 0.00 | 0.00 | 0.00 | 1 | 1010.1 |
| 20260905231528 | 66 | 275 | 0.0 | 1.0 | 0.00 | 0.00 | 0.00 | 9 | 1010.1 |
| 20260905230024 | 67 | 349 | 0.0 | 2.0 | 0.00 | 0.00 | 0.00 | 12 | 1010.2 |
| 20260905224527 | 67 | 333 | 0.0 | 4.0 | 0.00 | 0.00 | 0.00 | 18 | 1010.0 |
| 20260905223017 | 68 | 290 | 2.0 | 6.0 | 0.00 | 0.00 | 0.00 | 26 | 1009.9 |
| 20260905221515 | 69 | 287 | 2.0 | 4.0 | 0.00 | 0.00 | 0.00 | 30 | 1009.6 |
| 20260905220011 | 69 | 49 | 1.0 | 3.0 | 0.00 | 0.00 | 0.00 | 35 | 1009.4 |
| 20260905214511 | 69 | 342 | 1.0 | 4.0 | 0.00 | 0.00 | 0.00 | 41 | 1009.2 |
| 20260905213009 | 70 | 306 | 1.0 | 5.0 | 0.00 | 0.00 | 0.00 | 45 | 1009.2 |
| 20260905211508 | 70 | 344 | 3.0 | 6.0 | 0.00 | 0.00 | 0.00 | 52 | 1008.9 |
| 20260905210114 | 70 | 351 | 5.0 | 10.0 | 0.00 | 0.00 | 0.00 | 54 | 1009.0 |
| 20260905204509 | 71 | 41 | 7.0 | 11.0 | 0.00 | 0.00 | 0.00 | 54 | 1009.0 |
| 20260905203005 | 71 | 360 | 4.0 | 9.0 | 0.00 | 0.00 | 0.00 | 54 | 1008.9 |
| 20260905201506 | 72 | 298 | 4.0 | 10.0 | 0.00 | 0.00 | 0.00 | 56 | 1008.9 |
| 20260905200002 | 72 | 293 | 5.0 | 9.0 | 0.00 | 0.00 | 0.00 | 56 | 1008.9 |
| 20260905194559 | 71 | 360 | 4.0 | 9.0 | 0.00 | 0.00 | 0.00 | 55 | 1008.8 |
| 20260905193059 | 71 | 89 | 4.0 | 10.0 | 0.00 | 0.00 | 0.00 | 56 | 1008.6 |
| 20260905191557 | 71 | 360 | 4.0 | 8.0 | 0.00 | 0.00 | 0.00 | 53 | 1008.7 |
| 20260905184553 | 71 | 360 | 6.0 | 10.0 | 0.00 | 0.00 | 0.00 | 54 | 1008.7 |
| 20260905183109 | 71 | 15 | 1.0 | 4.0 | 0.00 | 0.00 | 0.00 | 55 | 1008.9 |
| 20260905181549 | 71 | 41 | 0.0 | 5.0 | 0.00 | 0.00 | 0.00 | 55 | 1008.8 |
| 20260905180050 | 71 | 317 | 4.0 | 10.0 | 0.00 | 0.00 | 0.00 | 55 | 1008.9 |
| 20260905174545 | 71 | 236 | 4.0 | 8.0 | 0.00 | 0.00 | 0.00 | 54 | 1009.1 |
| 20260905173044 | 71 | 348 | 6.0 | 13.0 | 0.00 | 0.00 | 0.00 | 54 | 1009.1 |
| 20260905171549 | 71 | 12 | 3.0 | 9.0 | 0.00 | 0.00 | 0.00 | 54 | 1009.1 |
| 20260905170043 | 72 | 15 | 2.0 | 7.0 | 0.00 | 0.00 | 0.00 | 55 | 1009.1 |
| 20260905164509 | 70 | 351 | 1.0 | 9.0 | 0.00 | 0.00 | 0.00 | 46 | 1009.3 |
| 20260905163006 | 69 | 335 | 3.0 | 11.0 | 0.00 | 0.00 | 0.00 | 46 | 1009.4 |
| 20260905161533 | 68 | 5 | 5.0 | 11.0 | 0.00 | 0.00 | 0.00 | 46 | 1009.4 |
| 20260905160033 | 68 | 24 | 5.0 | 15.0 | 0.00 | 0.00 | 0.00 | 41 | 1009.5 |
| 20260905154525 | 68 | 27 | 7.0 | 13.0 | 0.00 | 0.00 | 0.00 | 43 | 1009.6 |
| 20260905153030 | 67 | 64 | 5.0 | 14.0 | 0.00 | 0.00 | 0.00 | 39 | 1009.7 |
| 20260905151522 | 67 | 30 | 7.0 | 15.0 | 0.00 | 0.00 | 0.00 | 26 | 1009.8 |
| 20260905150022 | 67 | 5 | 4.0 | 12.0 | 0.00 | 0.00 | 0.00 | 13 | 1009.8 |
| 20260905144551 | 66 | 313 | 2.0 | 13.0 | 0.00 | 0.00 | 0.00 | 1 | 1009.8 |
| 20260905143051 | 65 | 5 | 5.0 | 10.0 | 0.00 | 0.00 | 0.00 | 1 | 1009.6 |
| 20260905141558 | 65 | 31 | 5.0 | 13.0 | 0.00 | 0.00 | 0.00 | 10 | 1009.7 |